This is the latest recevied weather packets stored in our database for station/object LY3FF-10. If no packets are shown the sender has not sent any weather packets the latest 10 day(s).
| Time | Temp. | Humidity | Pressure | Rain* | Wind** | Luminosity | Snow |
|---|---|---|---|---|---|---|---|
| 1788528890 | 16.67° C | 85% | 985.1 hPa | - | - | - | - |
| 1788528065 | 16.67° C | 84% | 985.3 hPa | - | - | - | - |
| 1788527190 | 16.67° C | 83% | 985.5 hPa | - | - | - | - |
| 1788526415 | 16.67° C | 83% | 985.5 hPa | - | - | - | - |
| 1788525625 | 16.67° C | 83% | 985.5 hPa | - | - | - | - |
| 1788524730 | 16.11° C | 84% | 985.5 hPa | - | - | - | - |
| 1788523990 | 16.11° C | 85% | 985.6 hPa | - | - | - | - |
| 1788523115 | 16.67° C | 84% | 986 hPa | - | - | - | - |
| 1788522380 | 18.33° C | 81% | 985.7 hPa | - | - | - | - |
| 1788521555 | 19.44° C | 80% | 985.8 hPa | - | - | - | - |
| 1788520660 | 19.44° C | 80% | 985.9 hPa | - | - | - | - |
| 1788519760 | 19.44° C | 81% | 985.8 hPa | - | - | - | - |
| 1788519025 | 18.89° C | 83% | 985.9 hPa | - | - | - | - |
| 1788518300 | 18.33° C | 85% | 986 hPa | - | - | - | - |
| 1788517501 | 18.33° C | 87% | 986.1 hPa | - | - | - | - |
| 1788516616 | 17.78° C | 88% | 986.2 hPa | - | - | - | - |
| 1788515732 | 16.67° C | 88% | 986.2 hPa | - | - | - | - |
| 1788514950 | 16.67° C | 88% | 986.3 hPa | - | - | - | - |
| 1788514200 | 16.11° C | 88% | 986.2 hPa | - | - | - | - |
| 1788513450 | 16.11° C | 88% | 986.3 hPa | - | - | - | - |
| 1788512710 | 16.11° C | 88% | 986.3 hPa | - | - | - | - |
| 1788511915 | 16.11° C | 87% | 986.4 hPa | - | - | - | - |
| 1788511133 | 15.56° C | 87% | 986.5 hPa | - | - | - | - |
| 1788510235 | 15.56° C | 87% | 986.5 hPa | - | - | - | - |
| 1788509375 | 15.56° C | 86% | 986.5 hPa | - | - | - | - |
* Rain since midnight (hover to see other rain measurements)
** Current wind speed in m/s (hover to see current wind gust speed)